COSMOS 1275 DEB, 12674

Orbit data source: Space-Track

COSMOS 1275 DEB, 12674 is space debris in LEO originally from a launch on Thu, 04 Jun 1981 UTC launched from the Plesetsk Missile And Space Complex (PKMTR). Debris objects in space refer to the collection of defunct objects orbiting the Earth. Examples of debris include non-operational satellites, rocket bodies, and fragments generated from explosions, collisions, or faulty payload assembly.

Loading next visibility...
Identifier
12674, 1981-053AE
Orbit
LEO
Last TLE update
1 day ago
Origin
Manufacturer
Unknown
Mission
Spacecraft
Bus & Motor
Unknown
Mass
Unknown
Launch date (UTC)
1981-06-04 (44 years ago)
Launch vehicle
Unknown
Launch site
Plesetsk Missile And Space Complex (PKMTR)
Object type
Payload
Rocket body
Debris
Shape & HBR
Unknown
Radar Cross Section
Medium (>0.1 m² and <1 m²)

Expand to show TLE details & history

TLE from 1 day ago
0 COSMOS 1275 DEB
1 12674U 81053AE  25198.56725940  .00000472  00000-0  46464-3 0  9990
2 12674  82.9339 254.4357 0101276 194.9926 331.8958 13.74641756193849
Epoch: 2025-07-17T13:36Z
TLE epoch observation values (Epoch: 2025-07-17T13:36:51.212Z)
Latitude
13.52554°
Longitude
-67.10861°
Altitude
919.509 km
Speed
7.426 km/s
True Right ascension
04h 50m 56s
True Declination
13° 26' 57"
Sunlit
Object was in daylight at epoch
Visualization orbit readout
Latitude
82.86098°
Longitude
-146.17905°
Altitude
1,009.443 km
Speed
7.347 km/s
Apparent Right ascension
18h 40m 18s
Apparent Declination
32° 31' 12"
Sunlit
Object is in daylight
Visualization observer readout
Local Sidereal Time
05:58:45
Azimuth
350.856° N
Elevation
-16.928°
Doppler factor
1
Orbital elements
Apogee altitude
1,054.624 km
Perigee altitude
905.581 km
Semi-major axis
7,358.24 km
Eccentricity
0.01013
Inclination
82.9339°
RAAN
254.4357°
Arg. of periapsis
194.9926°
True anomaly
331.34294°
Mean anomaly
331.8958°
Eccentric anomaly
331.61999°
Mean motion
3.4386 °/min
Orbital period
104.69 mins
BSTAR
0.00046464
Loading maneuver chart data...
Loading SW <> Apogee altitude chart data...
Loading historical data...
Loading historical data...
Loading historical data...
Loading historical data...
Loading historical data...
Loading historical data...
Loading historical data...
|